User: anonymous   Login
Location: Unspecified
(0.0000°N, 0.0000°E)
Time: 07:03:16
(UTC+00:00)
Language:

GENESIS II - Orbit

View from above orbital plane
View from above orbital plane
View from above satellite
View from above satellite

Ground track
Ground track

The orbit data is extracted from the following two-line orbital elements,

1 31789U 07028A   20019.80475830  .00000096  00000-0  15260-4 0  9995
2 31789  64.5048 112.2820 0051504 260.1484  99.3822 15.17135271692466
Epoch (UTC): 19 January 2020 19:18:51
Eccentricity: 0.0051504
inclination: 64.5048°
perigee height: 479 km
apogee height: 550 km
right ascension of ascending node: 112.2820°
argument of perigee: 260.1484°
revolutions per day: 15.17135271
mean anomaly at epoch: 99.3822°
orbit number at epoch: 69246

The dashed part of the orbit path shows where the satellite is in the earth's shadow,  

DLR